sat.trackr.live / text

‹ back to catalog

STARLINK-5000

NORAD 53935 · 2022-119BB

PAYLOAD ACTIVE UNKNOWN

§ Identity

Operator
Country
US
Launch date
2022-09-24
Launch site
AFETR
Launch vehicle
Mass (kg)
RCS (m²)

Purposes: comms

External: N2YO · Heavens-Above · Gunter

§ Orbital elements

Epoch: 2026-07-11T03:37:24.688416Z

Period
87.88 min
Inclination
53.2043°
Eccentricity
0.0010949
Mean motion
16.38540172 rev/d
Perigee alt
162.5 km
Apogee alt
176.9 km
Semi-major
6,547.8 km
B*
4.9574e-4
RAAN
49.8667°
Arg perigee
282.5413°
Mean anomaly
77.4411°
Rev number
21,144

§ Raw data

STARLINK-50001 53935U 22119BB  26192.15098019  .05862245  12334-4  49574-3 0  99942 53935  53.2043  49.8667 0010949 282.5413  77.4411 16.38540172211445

JSON: /api/v1/satellites/53935 · /tle

For live sub-satellite position, see the globe view (requires WebGL).

§ Visibility from observer

Set your observer location to see the next 7 days of passes ≥ 10°. The values pass through the URL so the page stays shareable.

No JS? Fill the form by hand. The geolocation button needs JavaScript.